[[{"header":{"parameterUnit":"m.s-1","parameterCategory":1,"la1":30.2992,"la2":30.254,"lo1":-89.0895,"lo2":-89.0443,"dy":0.0025,"dx":0.0025,"nx":19,"ny":19,"refTime":"2026-03-09T21:00:00:Z","depth":0,"parameterNumber":2,"parameterNumberName":"U-component_of_WINDS"},"data":[0,0,0,-1.0421,-1.0421,-1.0426,-1.0426,-1.0439,-1.0439,0,0,0,0,0,0,0,0,0,0,0,-1.0423,-1.0424,-1.0421,-1.0421,-1.0426,-1.0426,-1.0439,-1.0439,0,0,0,0,0,0,0,0,0,0,0,-1.0423,-1.0424,-1.0424,-1.0421,-1.0426,-1.0426,-1.0439,-1.0433,0,0,0,0,0,0,0,0,0,0,-1.0428,-1.0433,-1.0423,-1.0424,-1.0421,-1.0426,-1.0426,-1.0433,-1.0434,-1.044,0,-1.0446,0,-1.0443,-1.0441,-1.0441,0,0,0,-1.0419,-1.0432,-1.043,-1.0424,-1.0421,-1.0426,-1.0423,-1.0433,-1.0434,-1.0441,-1.0446,-1.0447,-1.0443,-1.0441,-1.0441,-1.0486,-1.0486,0,0,-1.0418,-1.0426,-1.043,-1.0431,-1.043,-1.0423,-1.0423,-1.0434,-1.044,-1.0446,-1.0447,-1.0443,-1.0441,-1.0441,-1.0485,-1.0486,0,0,0,-1.0419,-1.0426,-1.0424,-1.0431,-1.0431,-1.0423,-1.0423,-1.0439,-1.0438,-1.0447,-1.0444,-1.0441,-1.0441,-1.0485,-1.0486,-1.0509,0,0,0,-1.0419,-1.0427,-1.0424,-1.0429,-1.0431,-1.0435,-1.0429,-1.0437,-1.0438,-1.0444,-1.0441,-1.0441,-1.0485,-1.0485,-1.0508,-1.052,0,0,0,-1.0422,-1.0427,-1.0429,-1.0429,-1.0431,-1.0435,-1.0434,-1.0437,-1.0436,-1.0441,-1.0442,-1.0484,-1.0485,-1.0507,-1.0517,-1.0534,0,0,0,-1.0427,-1.045,-1.0429,-1.0454,-1.0431,-1.0449,-1.0433,-1.0447,-1.0453,-1.0441,-1.0485,-1.0485,-1.0506,-1.0516,-1.0533,-1.0549,-1.0557,0,0,-1.0461,-1.0455,-1.0468,-1.045,-1.0474,-1.0448,-1.0475,-1.0474,-1.0468,-1.048,-1.0481,-1.0508,-1.0517,-1.0534,-1.0597,-1.0603,0,0,0,-1.0482,-1.0492,-1.0497,-1.0503,-1.0502,-1.0503,-1.0497,-1.0497,-1.0507,-1.0475,-1.0519,-1.0524,-1.0533,-1.0541,-1.0546,-1.0553,-1.0489,-1.0489,-1.0489,-1.0541,-1.0531,-1.0554,-1.0544,-1.0551,-1.0545,-1.0549,-1.0548,-1.0536,-1.0547,-1.055,-1.059,-1.0599,-1.0603,-1.0611,-1.0558,-1.0558,-1.0558,-1.0559,-1.059,-1.0603,-1.0586,-1.0602,-1.0592,-1.0606,-1.0601,-1.0592,-1.0604,-1.0586,-1.0594,-1.0575,-1.061,-1.0617,-1.056,-1.056,-1.056,-1.056,-1.0559,-1.0628,-1.0632,-1.0631,-1.064,-1.0648,-1.0638,-1.065,-1.064,-1.0631,-1.0639,-1.0642,-1.0642,-1.064,-1.0641,-1.0641,-1.0641,-1.0642,-1.0642,-1.0642,-1.0668,-1.0665,-1.0676,-1.0678,-1.0681,-1.0684,-1.0678,-1.0681,-1.0682,-1.0675,-1.0675,-1.0662,-1.0615,-1.0603,-1.0644,-1.0643,-1.0643,-1.0643,-1.0643,-1.0721,-1.0707,-1.0724,-1.0728,-1.0729,-1.0738,-1.0725,-1.0733,-1.0734,-1.074,-1.0726,-1.0693,-1.0686,-1.0682,-1.0672,-1.0728,-1.0728,-1.0728,-1.0728,-1.0754,-1.0749,-1.0764,-1.077,-1.0775,-1.0765,-1.0785,-1.0781,-1.0775,-1.0776,-1.0766,-1.0753,-1.0749,-1.0744,-1.0739,-1.073,-1.0799,-1.0799,-1.0799,-1.0786,-1.0782,-1.0801,-1.0794,-1.0794,-1.0795,-1.0814,-1.0822,-1.0812,-1.0802,-1.0776,-1.0773,-1.0751,-1.0744,-1.0733,-1.0724,-1.0708,0,0]},{"header":{"parameterUnit":"m.s-1","parameterCategory":1,"la1":30.2992,"la2":30.254,"lo1":-89.0895,"lo2":-89.0443,"dy":0.0025,"dx":0.0025,"nx":19,"ny":19,"refTime":"2026-03-09T21:00:00:Z","depth":0,"parameterNumber":3,"parameterNumberName":"V-component_of_WINDS"},"data":[0,0,0,2.22,2.2199,2.218,2.218,2.215,2.215,0,0,0,0,0,0,0,0,0,0,0,2.2201,2.22,2.22,2.2199,2.218,2.218,2.215,2.215,0,0,0,0,0,0,0,0,0,0,0,2.2201,2.22,2.22,2.2199,2.218,2.218,2.215,2.2167,0,0,0,0,0,0,0,0,0,0,2.2186,2.2182,2.22,2.22,2.2199,2.218,2.218,2.2168,2.2166,2.2156,0,2.2145,0,2.2147,2.2147,2.2147,0,0,0,2.2203,2.2184,2.2183,2.22,2.2199,2.218,2.2189,2.2167,2.2164,2.2153,2.2145,2.2144,2.2146,2.2147,2.2147,2.2078,2.2078,0,0,2.2204,2.2194,2.2184,2.2181,2.2182,2.219,2.2189,2.2165,2.2155,2.2145,2.2143,2.2146,2.2147,2.2146,2.2079,2.2078,0,0,0,2.2204,2.2195,2.2195,2.2182,2.2179,2.2189,2.2188,2.2157,2.2157,2.2143,2.2146,2.2147,2.2146,2.2079,2.2079,2.2046,0,0,0,2.2205,2.2195,2.2195,2.2189,2.218,2.2167,2.2179,2.2159,2.2157,2.2146,2.2147,2.2146,2.208,2.2079,2.2048,2.2032,0,0,0,2.2203,2.2195,2.2191,2.2189,2.218,2.2168,2.2167,2.2159,2.2158,2.2147,2.2146,2.208,2.2079,2.205,2.2035,2.2013,0,0,0,2.2199,2.2161,2.219,2.2149,2.218,2.2148,2.2168,2.2144,2.213,2.2146,2.208,2.2079,2.2051,2.2037,2.2015,2.1993,2.1983,0,0,2.2146,2.2154,2.2131,2.2157,2.2116,2.2151,2.2107,2.2103,2.2111,2.2089,2.2088,2.2048,2.2036,2.2014,2.1928,2.192,0,0,0,2.2111,2.2095,2.2086,2.2073,2.207,2.2067,2.2071,2.2071,2.2053,2.2097,2.2034,2.2027,2.2014,2.2004,2.1997,2.1988,2.2073,2.2074,2.2074,2.2022,2.2035,2.1999,2.201,2.1997,2.2004,2.1996,2.1996,2.2011,2.1996,2.199,2.1936,2.1924,2.1919,2.1909,2.1979,2.1979,2.1979,2.1979,2.1947,2.1926,2.195,2.1923,2.1937,2.1915,2.1922,2.1934,2.1917,2.1941,2.1931,2.1957,2.191,2.1902,2.1976,2.1977,2.1977,2.1977,2.1977,2.189,2.1883,2.1884,2.1869,2.1857,2.187,2.1854,2.1867,2.188,2.1869,2.1866,2.1866,2.187,2.1867,2.1866,2.1866,2.1866,2.1866,2.1866,2.1832,2.1834,2.1818,2.1814,2.181,2.1805,2.1814,2.1811,2.181,2.1822,2.1822,2.184,2.1902,2.1918,2.1863,2.1864,2.1864,2.1864,2.1864,2.1752,2.1773,2.1748,2.1744,2.1742,2.1731,2.1749,2.1742,2.1741,2.1733,2.1754,2.1798,2.1807,2.1813,2.1826,2.175,2.175,2.175,2.175,2.1705,2.1712,2.1691,2.1684,2.1679,2.1694,2.1668,2.1676,2.1687,2.1689,2.1702,2.1721,2.1726,2.1732,2.174,2.1752,2.1659,2.1659,2.1659,2.1657,2.1665,2.1639,2.1651,2.1652,2.1653,2.163,2.1623,2.164,2.1656,2.169,2.1694,2.1725,2.1734,2.1749,2.176,2.1784,0,0]}]]